Lid_Strength_Index
4 3 3 4 5 7 8 9 10 10 10 10 10 11 11 12 12 12 13 13 13 13
3 5 7 8 8 9 10 10 11 11 12 12 12 12 13 13 13 14 14 14 14 14
6 7 9 10 10 11 11 11 12 13 13 13 13 13 13 14 14 14 14 14 14 14
10 10 11 11 11 11 12 13 13 13 13 13 13 14 14 15 15 15 15 15 15 15
11 12 12 13 13 12 13 14 13 13 13 14 14 15 15 15 16 16 16 15 15 16
12 14 13 15 15 14 14 14 14 14 14 15 15 15 15 15 16 16 16 16 16 16
13 14 15 15 14 14 14 14 14 15 15 15 16 15 15 15 16 16 15 15 15 15
14 14 15 15 14 14 15 15 15 16 16 16 15 15 15 15 15 15 16 15 15 15
15 15 14 14 14 15 15 16 16 16 16 16 15 12 13 14 15 15 15 16 15 15
14 14 14 15 15 16 17 17 17 17 17 16 15 13 13 13 15 15 15 15 15 15
15 15 16 16 16 17 17 17 17 17 17 16 16 13 12 13 15 15 15 15 15 15
15 16 16 16 17 17 17 18 18 17 18 17 16 13 12 13 14 14 14 14 15 15
15 15 16 16 17 18 17 17 17 17 18 18 17 15 13 12 14 15 15 15 15 14
16 16 16 17 18 18 18 18 19 19 19 18 18 17 13 12 14 15 16 16 16 15